Regional Weather Roundup
Issued by NWS Charleston, WV

Home | Current Version | Previous Version | Graphics & Text | Print | Product List | Glossary On
Versions: 1 2 3 4 5 6 7 8 9 10 11 12 13 14 15 16 17 18 19 20 21 22 23 24 25 26 27 28 29 30 31 32 33 34 35 36 37 38 39 40 41 42 43 44 45 46 47 48 49 50
000
ASUS41 KRLX 021210
RWRRLX
West Virginia Regional Weather Roundup
National Weather Service Charleston WV
800 AM EDT SUN AUG 02 2015

Note: "fair" indicates few or no clouds below 12,000 feet with no
significant weather and/or obstructions to visibility.

WVZ003-021300-
Northern Panhandle of West Virginia

CITY           SKY/WX    TMP DP  RH WIND       PRES   REMARKS
WHEELING       PTSUNNY   64  58  80 SE3       29.97S
$$

WVZ009-021300-
Northwest West Virginia

CITY           SKY/WX    TMP DP  RH WIND       PRES   REMARKS
PARKERSBURG    PTSUNNY   63  59  87 CALM      30.01R
$$

WVZ006-021300-
Western West Virginia

CITY           SKY/WX    TMP DP  RH WIND       PRES   REMARKS
HUNTINGTON     PTSUNNY   63  62  97 CALM      30.01R
$$

WVZ015-021300-
West Central West Virginia

CITY           SKY/WX    TMP DP  RH WIND       PRES   REMARKS
CHARLESTON     PTSUNNY   61  60  97 CALM      30.02R
$$

WVZ022-031-021300-
North Central West Virginia

CITY           SKY/WX    TMP DP  RH WIND       PRES   REMARKS
CLARKSBURG     MOSUNNY   62  59  90 CALM      30.01R
MORGANTOWN     MOSUNNY   64  56  75 CALM      30.02R
$$

WVZ025-035-042-045-021300-
Southern West Virginia

CITY           SKY/WX    TMP DP  RH WIND       PRES   REMARKS
BECKLEY        SUNNY     62  56  80 S3        30.08R
LOGAN          FOG       61  61 100 CALM      30.01R VSB<1/4
BLUEFIELD      SUNNY     64  55  72 W3        30.10R
LEWISBURG      SUNNY     56  53  91 NE3       30.08R
$$

WVZ047-021300-
Northern Mountains of West Virginia

CITY           SKY/WX    TMP DP  RH WIND       PRES   REMARKS
ELKINS         MOSUNNY   58  54  86 CALM      30.06S
$$

WVZ052-021300-
Eastern Panhandle of West Virginia

CITY           SKY/WX    TMP DP  RH WIND       PRES   REMARKS
MARTINSBURG    SUNNY     68  58  70 CALM      29.97R
PETERSBURG     MOSUNNY  N/A N/A N/A CALM      30.01S
$$



USA.gov is the U.S. government's official web portal to all federal, state and local government web resources and services.